User: anonymous   Login
Location: Ciserano
(45.5833°N, 9.6000°E)
Time: 22:39:59
(UTC+00:00)
Language:

FALCON 9 DEB - Orbit

View from above orbital plane
View from above orbital plane
View from above satellite
View from above satellite

Ground track
Ground track

The orbit data is extracted from the following two-line orbital elements,

1 46085U 20055BL  21059.46073724  .00012113  00000-0  14434-3 0  9992
2 46085  53.0133  11.9480 0008904 241.2707 118.7411 15.61536204 36619
Epoch (UTC): 28 February 2021 11:03:27
Eccentricity: 0.0008904
inclination: 53.0133°
perigee height: 377 km
apogee height: 389 km
right ascension of ascending node: 11.9480°
argument of perigee: 241.2707°
revolutions per day: 15.61536204
mean anomaly at epoch: 118.7411°
orbit number at epoch: 3661

The dashed part of the orbit path shows where the satellite is in the earth's shadow,  

DLR